• In Belarus
  • List of Countries
  • For 7 days
  • Water Temperature
  • Satellite Maps
  • Weather Map
  • Weather Widgets
  • user-avatar
    Login

    Hourly Weather Louangphabang

    Today, 10 December, Monday

    Time Temperature Precipitation Wind Pressure Humidity
    00:00 +17°C° 0 mm 0 mps 700 mmHg 98%
    01:00 +16°C° 0 mm 0 mps 699 mmHg 99%
    02:00 +16°C° 0 mm 0 mps 699 mmHg 99%
    03:00 +16°C° 0 mm 0 mps 699 mmHg 99%
    04:00 +16°C° 0 mm 0 mps 699 mmHg 99%
    05:00 +16°C° 0 mm 0 mps 699 mmHg 99%
    06:00 +16°C° 0 mm 0 mps 699 mmHg 99%
    07:00 +16°C° 0 mm 0 mps 700 mmHg 98%
    08:00 +18°C° 0 mm 0 mps 700 mmHg 91%
    09:00 +20°C° 0 mm 0 mps 701 mmHg 83%
    10:00 +22°C° 0 mm 0 mps 701 mmHg 76%
    11:00 +23°C° 0.3 mm 0 mps 701 mmHg 73%
    12:00 +24°C° 0.3 mm 0 mps 701 mmHg 71%
    13:00 +24°C° 0.3 mm 0 mps 700 mmHg 69%
    14:00 +24°C° 0.4 mm 0 mps 700 mmHg 69%
    15:00 +24°C° 0.4 mm 0 mps 699 mmHg 70%
    16:00 +24°C° 0.4 mm 0 mps 698 mmHg 71%
    17:00 +22°C° 0.2 mm 0 mps 699 mmHg 78%
    18:00 +21°C° 0.2 mm 0 mps 699 mmHg 84%
    19:00 +19°C° 0.2 mm 0 mps 699 mmHg 91%
    20:00 +18°C° 0 mm 0 mps 699 mmHg 92%
    21:00 +18°C° 0 mm 0 mps 700 mmHg 93%
    22:00 +18°C° 0 mm 0 mps 700 mmHg 95%
    23:00 +17°C° 0 mm 0 mps 700 mmHg 95%

    Tomorrow, 11 December, Tuesday

    Time Temperature Precipitation Wind Pressure Humidity
    00:00 +17°C° 0 mm 0 mps 700 mmHg 96%
    01:00 +17°C° 0 mm 0 mps 700 mmHg 96%
    02:00 +17°C° 0 mm 0 mps 700 mmHg 96%
    03:00 +17°C° 0 mm 0 mps 700 mmHg 95%
    04:00 +17°C° 0 mm 0 mps 699 mmHg 95%
    05:00 +17°C° 0 mm 0 mps 700 mmHg 94%
    06:00 +17°C° 0 mm 0 mps 700 mmHg 94%
    07:00 +17°C° 0 mm 0 mps 700 mmHg 93%
    08:00 +19°C° 0 mm 0 mps 701 mmHg 86%
    09:00 +20°C° 0 mm 0 mps 701 mmHg 79%
    10:00 +22°C° 0 mm 0 mps 702 mmHg 72%
    11:00 +23°C° 0.1 mm 0 mps 701 mmHg 69%
    12:00 +24°C° 0.1 mm 0 mps 701 mmHg 66%
    13:00 +25°C° 0.1 mm 0 mps 700 mmHg 63%
    14:00 +25°C° 0.6 mm 0 mps 700 mmHg 71%
    15:00 +24°C° 0.6 mm 0 mps 699 mmHg 79%
    16:00 +23°C° 0.6 mm 0 mps 699 mmHg 86%
    17:00 +22°C° 0.4 mm 0 mps 699 mmHg 90%
    18:00 +20°C° 0.4 mm 0 mps 699 mmHg 93%
    19:00 +19°C° 0.4 mm 0 mps 699 mmHg 96%
    20:00 +19°C° 0.1 mm 0 mps 700 mmHg 96%
    21:00 +19°C° 0.1 mm 0 mps 700 mmHg 97%
    22:00 +18°C° 0.1 mm 0 mps 700 mmHg 98%
    23:00 +18°C° 0.1 mm 0 mps 700 mmHg 98%

    Day after tomorrow, 12 December, Wednesday

    Time Temperature Precipitation Wind Pressure Humidity
    00:00 +18°C° 0.1 mm 0 mps 700 mmHg 98%
    01:00 +18°C° 0.1 mm 0 mps 700 mmHg 97%
    02:00 +18°C° 0.1 mm 0 mps 700 mmHg 98%
    03:00 +18°C° 0.1 mm 0 mps 700 mmHg 98%
    04:00 +18°C° 0.1 mm 0 mps 699 mmHg 98%
    05:00 +18°C° 0.2 mm 0 mps 700 mmHg 98%
    06:00 +18°C° 0.2 mm 0 mps 700 mmHg 98%
    07:00 +18°C° 0.2 mm 0 mps 700 mmHg 98%
    08:00 +19°C° 0.1 mm 0 mps 701 mmHg 94%
    09:00 +20°C° 0.1 mm 0 mps 702 mmHg 89%
    10:00 +21°C° 0.1 mm 0 mps 702 mmHg 85%
    11:00 +22°C° 0 mm 0 mps 702 mmHg 79%
    12:00 +23°C° 0 mm 0 mps 702 mmHg 72%
    13:00 +25°C° 0 mm 0 mps 701 mmHg 65%
    14:00 +24°C° 0.1 mm 0 mps 701 mmHg 68%
    15:00 +24°C° 0.1 mm 0 mps 700 mmHg 70%
    16:00 +23°C° 0.1 mm 0 mps 699 mmHg 73%
    17:00 +22°C° 0.1 mm 0 mps 700 mmHg 79%
    18:00 +21°C° 0.1 mm 0 mps 700 mmHg 85%
    19:00 +19°C° 0.1 mm 0 mps 700 mmHg 91%
    20:00 +19°C° 0.1 mm 0 mps 701 mmHg 92%
    21:00 +19°C° 0.1 mm 0 mps 701 mmHg 93%
    22:00 +19°C° 0.1 mm 0 mps 701 mmHg 94%
    23:00 +18°C° 0.1 mm 0 mps 701 mmHg 95%

    13 December, Thursday

    Time Temperature Precipitation Wind Pressure Humidity
    00:00 +18°C° 0.1 mm 0 mps 701 mmHg 96%
    01:00 +18°C° 0.1 mm 0 mps 701 mmHg 96%
    02:00 +18°C° 0.2 mm 0 mps 701 mmHg 96%
    03:00 +18°C° 0.2 mm 0 mps 700 mmHg 97%
    04:00 +18°C° 0.2 mm 0 mps 700 mmHg 97%
    05:00 +17°C° 0.2 mm 0 mps 700 mmHg 97%
    06:00 +17°C° 0.2 mm 0 mps 701 mmHg 97%
    07:00 +17°C° 0.2 mm 0 mps 701 mmHg 97%
    08:00 +18°C° 0.2 mm 0 mps 702 mmHg 94%
    09:00 +19°C° 0.2 mm 0 mps 702 mmHg 91%
    10:00 +19°C° 0.2 mm 0 mps 703 mmHg 89%
    11:00 +20°C° 0.1 mm 0 mps 702 mmHg 85%
    12:00 +23°C° 0.1 mm 1 mps 702 mmHg 82%
    13:00 +23°C° 0.1 mm 1 mps 701 mmHg 79%
    14:00 +23°C° 0.1 mm 1 mps 700 mmHg 78%
    15:00 +24°C° 0.1 mm 1 mps 700 mmHg 78%
    16:00 +24°C° 0.1 mm 1 mps 700 mmHg 77%
    17:00 +22°C° 0 mm 1 mps 700 mmHg 82%
    18:00 +19°C° 0 mm 0 mps 700 mmHg 86%
    19:00 +18°C° 0 mm 0 mps 701 mmHg 91%
    20:00 +18°C° 0 mm 0 mps 701 mmHg 92%
    21:00 +17°C° 0 mm 0 mps 701 mmHg 93%
    22:00 +17°C° 0 mm 0 mps 702 mmHg 94%
    23:00 +17°C° 0 mm 0 mps 702 mmHg 94%

    14 December, Friday

    Time Temperature Precipitation Wind Pressure Humidity
    00:00 +17°C° 0 mm 0 mps 702 mmHg 93%
    01:00 +17°C° 0 mm 0 mps 701 mmHg 93%
    02:00 +17°C° 0 mm 0 mps 701 mmHg 93%
    03:00 +17°C° 0 mm 0 mps 701 mmHg 94%
    04:00 +17°C° 0 mm 0 mps 701 mmHg 94%
    05:00 +16°C° 0 mm 0 mps 701 mmHg 95%
    06:00 +16°C° 0 mm 0 mps 702 mmHg 96%
    07:00 +16°C° 0 mm 0 mps 702 mmHg 97%
    08:00 +18°C° 0 mm 0 mps 703 mmHg 85%
    09:00 +21°C° 0 mm 0 mps 703 mmHg 73%
    10:00 +26°C° 0 mm 1 mps 704 mmHg 61%
    11:00 +25°C° 0 mm 0 mps 703 mmHg 58%
    12:00 +26°C° 0 mm 0 mps 702 mmHg 55%
    13:00 +26°C° 0 mm 0 mps 702 mmHg 52%
    14:00 +26°C° 0 mm 0 mps 701 mmHg 55%
    15:00 +26°C° 0 mm 0 mps 701 mmHg 58%
    16:00 +25°C° 0 mm 0 mps 700 mmHg 61%
    17:00 +23°C° 0 mm 0 mps 701 mmHg 69%
    18:00 +21°C° 0 mm 0 mps 701 mmHg 76%
    19:00 +19°C° 0 mm 0 mps 701 mmHg 84%
    20:00 +19°C° 0 mm 0 mps 702 mmHg 86%
    21:00 +19°C° 0 mm 0 mps 702 mmHg 87%
    22:00 +18°C° 0 mm 0 mps 702 mmHg 89%
    23:00 +18°C° 0 mm 0 mps 702 mmHg 90%

    15 December, Saturday

    Time Temperature Precipitation Wind Pressure Humidity
    00:00 +18°C° 0 mm 0 mps 702 mmHg 90%
    01:00 +18°C° 0 mm 0 mps 702 mmHg 91%
    02:00 +17°C° 0 mm 0 mps 702 mmHg 91%
    03:00 +17°C° 0 mm 0 mps 702 mmHg 92%
    04:00 +17°C° 0 mm 0 mps 702 mmHg 92%
    05:00 +17°C° 0 mm 0 mps 702 mmHg 93%
    06:00 +16°C° 0 mm 0 mps 702 mmHg 94%
    07:00 +16°C° 0 mm 0 mps 703 mmHg 95%
    08:00 +21°C° 0 mm 1 mps 703 mmHg 83%
    09:00 +24°C° 0 mm 1 mps 704 mmHg 71%
    10:00 +26°C° 0 mm 1 mps 704 mmHg 59%
    11:00 +28°C° 0 mm 1 mps 703 mmHg 54%
    12:00 +30°C° 0 mm 1 mps 703 mmHg 48%
    13:00 +29°C° 0 mm 0 mps 702 mmHg 43%
    14:00 +28°C° 0 mm 0 mps 701 mmHg 46%
    15:00 +28°C° 0 mm 0 mps 701 mmHg 49%
    16:00 +27°C° 0 mm 0 mps 700 mmHg 53%
    17:00 +25°C° 0 mm 0 mps 701 mmHg 59%
    18:00 +23°C° 0 mm 0 mps 701 mmHg 66%
    19:00 +21°C° 0 mm 0 mps 701 mmHg 73%
    20:00 +20°C° 0 mm 0 mps 701 mmHg 76%
    21:00 +20°C° 0 mm 0 mps 702 mmHg 80%
    22:00 +19°C° 0 mm 0 mps 702 mmHg 83%
    23:00 +19°C° 0 mm 0 mps 702 mmHg 85%
    Show more